This is the latest recevied weather packets stored in our database for station/object W4TJP. If no packets are shown the sender has not sent any weather packets the latest 10 day(s).
| Time | Temp. | Humidity | Pressure | Rain* | Wind** | Luminosity | Snow |
|---|---|---|---|---|---|---|---|
| 1777846765 | 15.56° C | 50% | 1017 hPa | 0 mm | - | 72 W/m² | - |
| 1777846463 | 15.56° C | 47% | 1016.9 hPa | 0 mm | - | 142 W/m² | - |
| 1777846160 | 15.56° C | 46% | 1017.4 hPa | 0 mm | - | 59 W/m² | - |
| 1777845856 | 15.56° C | 46% | 1017.2 hPa | 0 mm | - | 85 W/m² | - |
| 1777845553 | 16.11° C | 44% | 1017.3 hPa | 0 mm | - | 44 W/m² | - |
| 1777845250 | 16.11° C | 43% | 1017.3 hPa | 0 mm | - | 75 W/m² | - |
| 1777844948 | 16.67° C | 43% | 1017.3 hPa | 0 mm | - | 41 W/m² | - |
| 1777844645 | 16.67° C | 43% | 1017.5 hPa | 0 mm | - | 110 W/m² | - |
| 1777844342 | 17.78° C | 40% | 1017.4 hPa | 0 mm | - | 58 W/m² | - |
| 1777844040 | 17.78° C | 40% | 1017.4 hPa | 0 mm | - | 401 W/m² | - |
| 1777843736 | 18.33° C | 41% | 1017.4 hPa | 0 mm | - | 405 W/m² | - |
| 1777843434 | 17.78° C | 40% | 1017.7 hPa | 0 mm | - | 436 W/m² | - |
| 1777843131 | 18.33° C | 39% | 1017.7 hPa | 0 mm | - | 440 W/m² | - |
| 1777842828 | 17.78° C | 45% | 1017.8 hPa | 0 mm | - | 424 W/m² | - |
| 1777842523 | 17.78° C | 40% | 1017.8 hPa | 0 mm | - | 440 W/m² | - |
| 1777842221 | 18.33° C | 40% | 1017.8 hPa | 0 mm | - | 477 W/m² | - |
| 1777841915 | 18.33° C | 39% | 1017.7 hPa | 0 mm | - | 481 W/m² | - |
| 1777841612 | 18.33° C | 46% | 1017.7 hPa | 0 mm | - | 495 W/m² | - |
| 1777841309 | 18.89° C | 41% | 1017.8 hPa | 0 mm | - | 505 W/m² | - |
| 1777841007 | 18.89° C | 41% | 1017.9 hPa | 0 mm | - | 503 W/m² | - |
| 1777840703 | 18.33° C | 42% | 1017.9 hPa | 0 mm | - | 515 W/m² | - |
| 1777840401 | 18.33° C | 44% | 1017.9 hPa | 0 mm | - | 539 W/m² | - |
| 1777840098 | 18.33° C | 44% | 1017.9 hPa | 0 mm | - | 544 W/m² | - |
| 1777839796 | 17.78° C | 43% | 1018.1 hPa | 0 mm | - | 529 W/m² | - |
| 1777839494 | 17.78° C | 43% | 1018.1 hPa | 0 mm | - | 571 W/m² | - |
* Rain latest hour (hover to see other rain measurements)
** Current wind speed in m/s (hover to see current wind gust speed)